Year,Month,Day,Hour,Minute,Value (Times are PST for temperature in C)
2017,08,10,00,00,16.30
2017,08,10,00,01,16.30
2017,08,10,00,02,16.30
2017,08,10,00,03,16.20
2017,08,10,00,04,16.20
2017,08,10,00,05,16.20
2017,08,10,00,06,16.20
2017,08,10,00,07,16.20
2017,08,10,00,08,16.20
2017,08,10,00,09,16.20
2017,08,10,00,10,16.20
2017,08,10,00,11,16.20
2017,08,10,00,12,16.20
2017,08,10,00,13,16.20
2017,08,10,00,14,16.20
2017,08,10,00,15,16.20
2017,08,10,00,16,16.20
2017,08,10,00,17,16.20
2017,08,10,00,18,16.20
2017,08,10,00,19,16.20
2017,08,10,00,20,16.20
2017,08,10,00,21,16.20
2017,08,10,00,22,16.20
2017,08,10,00,23,16.20
2017,08,10,00,24,16.20
2017,08,10,00,25,16.20
2017,08,10,00,26,16.20
2017,08,10,00,27,16.20
2017,08,10,00,28,16.20
2017,08,10,00,29,16.20
2017,08,10,00,30,16.20
2017,08,10,00,31,16.20
2017,08,10,00,32,16.20
2017,08,10,00,33,16.20
2017,08,10,00,34,16.20
2017,08,10,00,35,16.20
2017,08,10,00,36,16.20
2017,08,10,00,37,16.20
2017,08,10,00,38,16.20
2017,08,10,00,39,16.20
2017,08,10,00,40,16.20
2017,08,10,00,41,16.20
2017,08,10,00,42,16.20
2017,08,10,00,43,16.20
2017,08,10,00,44,16.30
2017,08,10,00,45,16.30
2017,08,10,00,46,16.30
2017,08,10,00,47,16.30
2017,08,10,00,48,16.30
2017,08,10,00,49,16.30
2017,08,10,00,50,16.30
2017,08,10,00,51,16.30
2017,08,10,00,52,16.30
2017,08,10,00,53,16.30
2017,08,10,00,54,16.40
2017,08,10,00,55,16.40
2017,08,10,00,56,16.40
2017,08,10,00,57,16.40
2017,08,10,00,58,16.40
2017,08,10,00,59,16.40
2017,08,10,01,00,16.40
2017,08,10,01,01,16.40
2017,08,10,01,02,16.40
2017,08,10,01,03,16.40
2017,08,10,01,04,16.30
2017,08,10,01,05,16.30
2017,08,10,01,06,16.30
2017,08,10,01,07,16.30
2017,08,10,01,08,16.30
2017,08,10,01,09,16.30
2017,08,10,01,10,16.30
2017,08,10,01,11,16.20
2017,08,10,01,12,16.20
2017,08,10,01,13,16.30
2017,08,10,01,14,16.30
2017,08,10,01,15,16.30
2017,08,10,01,16,16.30
2017,08,10,01,17,16.30
2017,08,10,01,18,16.20
2017,08,10,01,19,16.20
2017,08,10,01,20,16.20
2017,08,10,01,21,16.30
2017,08,10,01,22,16.30
2017,08,10,01,23,16.30
2017,08,10,01,24,16.20
2017,08,10,01,25,16.20
2017,08,10,01,26,16.20
2017,08,10,01,27,16.20
2017,08,10,01,28,16.20
2017,08,10,01,29,16.20
2017,08,10,01,30,16.20
2017,08,10,01,31,16.20
2017,08,10,01,32,16.20
2017,08,10,01,33,16.20
2017,08,10,01,34,16.20
2017,08,10,01,35,16.20
2017,08,10,01,36,16.20
2017,08,10,01,37,16.20
2017,08,10,01,38,16.20
2017,08,10,01,39,16.20
2017,08,10,01,40,16.20
2017,08,10,01,41,16.20
2017,08,10,01,42,16.10
2017,08,10,01,43,16.10
2017,08,10,01,44,16.10
2017,08,10,01,45,16.10
2017,08,10,01,46,16.10
2017,08,10,01,47,16.10
2017,08,10,01,48,16.10
2017,08,10,01,49,16.10
2017,08,10,01,50,16.10
2017,08,10,01,51,16.00
2017,08,10,01,52,16.00
2017,08,10,01,53,16.00
2017,08,10,01,54,16.00
2017,08,10,01,55,15.90
2017,08,10,01,56,15.90
2017,08,10,01,57,15.90
2017,08,10,01,58,15.90
2017,08,10,01,59,16.00
2017,08,10,02,00,16.00
2017,08,10,02,01,16.00
2017,08,10,02,02,16.00
2017,08,10,02,03,16.00
2017,08,10,02,04,16.00
2017,08,10,02,05,16.00
2017,08,10,02,06,16.00
2017,08,10,02,07,15.90
2017,08,10,02,08,15.90
2017,08,10,02,09,15.90
2017,08,10,02,10,15.90
2017,08,10,02,11,15.80
2017,08,10,02,12,15.80
2017,08,10,02,13,15.80
2017,08,10,02,14,15.70
2017,08,10,02,15,15.70
2017,08,10,02,16,15.70
2017,08,10,02,17,15.70
2017,08,10,02,18,15.60
2017,08,10,02,19,15.60
2017,08,10,02,20,15.60
2017,08,10,02,21,15.60
2017,08,10,02,22,15.60
2017,08,10,02,23,15.60
2017,08,10,02,24,15.60
2017,08,10,02,25,15.50
2017,08,10,02,26,15.50
2017,08,10,02,27,15.50
2017,08,10,02,28,15.50
2017,08,10,02,29,15.50
2017,08,10,02,30,15.50
2017,08,10,02,31,15.50
2017,08,10,02,32,15.50
2017,08,10,02,33,15.50
2017,08,10,02,34,15.50
2017,08,10,02,35,15.50
2017,08,10,02,36,15.50
2017,08,10,02,37,15.50
2017,08,10,02,38,15.40
2017,08,10,02,39,15.40
2017,08,10,02,40,15.40
2017,08,10,02,41,15.40
2017,08,10,02,42,15.30
2017,08,10,02,43,15.30
2017,08,10,02,44,15.30
2017,08,10,02,45,15.20
2017,08,10,02,46,15.20
2017,08,10,02,47,15.20
2017,08,10,02,48,15.20
2017,08,10,02,49,15.20
2017,08,10,02,50,15.10
2017,08,10,02,51,15.10
2017,08,10,02,52,15.10
2017,08,10,02,53,15.10
2017,08,10,02,54,15.10
2017,08,10,02,55,15.10
2017,08,10,02,56,15.10
2017,08,10,02,57,15.10
2017,08,10,02,58,15.10
2017,08,10,02,59,15.10
2017,08,10,03,00,15.10
2017,08,10,03,01,15.10
2017,08,10,03,02,15.20
2017,08,10,03,03,15.20
2017,08,10,03,04,15.20
2017,08,10,03,05,15.20
2017,08,10,03,06,15.20
2017,08,10,03,07,15.20
2017,08,10,03,08,15.20
2017,08,10,03,09,15.10
2017,08,10,03,10,15.10
2017,08,10,03,11,15.20
2017,08,10,03,12,15.20
2017,08,10,03,13,15.20
2017,08,10,03,14,15.20
2017,08,10,03,15,15.20
2017,08,10,03,16,15.20
2017,08,10,03,17,15.20
2017,08,10,03,18,15.20
2017,08,10,03,19,15.20
2017,08,10,03,20,15.20
2017,08,10,03,21,15.20
2017,08,10,03,22,15.20
2017,08,10,03,23,15.20
2017,08,10,03,24,15.20
2017,08,10,03,25,15.20
2017,08,10,03,26,15.20
2017,08,10,03,27,15.20
2017,08,10,03,28,15.20
2017,08,10,03,29,15.30
2017,08,10,03,30,15.30
2017,08,10,03,31,15.30
2017,08,10,03,32,15.30
2017,08,10,03,33,15.40
2017,08,10,03,34,15.40
2017,08,10,03,35,15.40
2017,08,10,03,36,15.50
2017,08,10,03,37,15.50
2017,08,10,03,38,15.60
2017,08,10,03,39,15.60
2017,08,10,03,40,15.60
2017,08,10,03,41,15.60
2017,08,10,03,42,15.60
2017,08,10,03,43,15.60
2017,08,10,03,44,15.60
2017,08,10,03,45,15.70
2017,08,10,03,46,15.70
2017,08,10,03,47,15.80
2017,08,10,03,48,15.80
2017,08,10,03,49,15.80
2017,08,10,03,50,15.80
2017,08,10,03,51,15.80
2017,08,10,03,52,15.80
2017,08,10,03,53,15.80
2017,08,10,03,54,15.80
2017,08,10,03,55,15.80
2017,08,10,03,56,15.80
2017,08,10,03,57,15.80
2017,08,10,03,58,15.80
2017,08,10,03,59,15.80
2017,08,10,04,00,15.80
2017,08,10,04,01,15.80
2017,08,10,04,02,15.80
2017,08,10,04,03,15.80
2017,08,10,04,04,15.80
2017,08,10,04,08,15.80
2017,08,10,04,09,15.90
2017,08,10,04,10,15.90
2017,08,10,04,11,15.90
2017,08,10,04,12,16.00
2017,08,10,04,13,16.00
2017,08,10,04,14,16.00
2017,08,10,04,15,16.10
2017,08,10,04,16,16.10
2017,08,10,04,17,16.10
2017,08,10,04,18,16.10
2017,08,10,04,19,16.10
2017,08,10,04,20,16.10
2017,08,10,04,21,16.10
2017,08,10,04,22,16.10
2017,08,10,04,23,16.10
2017,08,10,04,24,16.10
2017,08,10,04,25,16.10
2017,08,10,04,26,16.10
2017,08,10,04,27,16.10
2017,08,10,04,28,16.10
2017,08,10,04,29,16.10
2017,08,10,04,30,16.00
2017,08,10,04,31,16.10
2017,08,10,04,32,16.10
2017,08,10,04,33,16.10
2017,08,10,04,34,16.10
2017,08,10,04,35,16.10
2017,08,10,04,36,16.10
2017,08,10,04,37,16.10
2017,08,10,04,38,16.10
2017,08,10,04,39,16.10
2017,08,10,04,40,16.00
2017,08,10,04,41,16.00
2017,08,10,04,42,16.00
2017,08,10,04,43,16.00
2017,08,10,04,44,15.90
2017,08,10,04,45,15.90
2017,08,10,04,46,15.90
2017,08,10,04,47,15.90
2017,08,10,04,48,15.80
2017,08,10,04,49,15.80
2017,08,10,04,50,15.80
2017,08,10,04,51,15.70
2017,08,10,04,52,15.70
2017,08,10,04,53,15.60
2017,08,10,04,54,15.60
2017,08,10,04,55,15.50
2017,08,10,04,56,15.40
2017,08,10,04,57,15.40
2017,08,10,04,58,15.30
2017,08,10,04,59,15.30
2017,08,10,05,00,15.30
2017,08,10,05,01,15.20
2017,08,10,05,02,15.20
2017,08,10,05,03,15.20
2017,08,10,05,04,15.10
2017,08,10,05,05,15.10
2017,08,10,05,06,15.00
2017,08,10,05,07,15.00
2017,08,10,05,08,14.90
2017,08,10,05,09,14.90
2017,08,10,05,10,14.90
2017,08,10,05,11,14.80
2017,08,10,05,12,14.80
2017,08,10,05,13,14.80
2017,08,10,05,14,14.80
2017,08,10,05,15,14.70
2017,08,10,05,16,14.70
2017,08,10,05,17,14.70
2017,08,10,05,18,14.70
2017,08,10,05,19,14.60
2017,08,10,05,20,14.60
2017,08,10,05,21,14.60
2017,08,10,05,22,14.60
2017,08,10,05,23,14.60
2017,08,10,05,24,14.50
2017,08,10,05,25,14.50
2017,08,10,05,26,14.50
2017,08,10,05,27,14.50
2017,08,10,05,28,14.50
2017,08,10,05,29,14.40
2017,08,10,05,30,14.40
2017,08,10,05,31,14.40
2017,08,10,05,32,14.40
2017,08,10,05,33,14.40
2017,08,10,05,34,14.40
2017,08,10,05,35,14.40
2017,08,10,05,36,14.40
2017,08,10,05,37,14.40
2017,08,10,05,38,14.40
2017,08,10,05,39,14.40
2017,08,10,05,40,14.40
2017,08,10,05,41,14.40
2017,08,10,05,42,14.40
2017,08,10,05,43,14.40
2017,08,10,05,44,14.40
2017,08,10,05,45,14.30
2017,08,10,05,46,14.30
2017,08,10,05,47,14.30
2017,08,10,05,48,14.30
2017,08,10,05,49,14.30
2017,08,10,05,50,14.30
2017,08,10,05,51,14.30
2017,08,10,05,52,14.30
2017,08,10,05,53,14.30
2017,08,10,05,54,14.30
2017,08,10,05,55,14.30
2017,08,10,05,56,14.30
2017,08,10,05,57,14.30
2017,08,10,05,58,14.30
2017,08,10,05,59,14.30
2017,08,10,06,00,14.30
2017,08,10,06,01,14.30
2017,08,10,06,02,14.30
2017,08,10,06,03,14.30
2017,08,10,06,04,14.30
2017,08,10,06,05,14.30
2017,08,10,06,06,14.30
2017,08,10,06,07,14.30
2017,08,10,06,08,14.30
2017,08,10,06,09,14.30
2017,08,10,06,10,14.30
2017,08,10,06,11,14.30
2017,08,10,06,12,14.30
2017,08,10,06,13,14.30
2017,08,10,06,14,14.30
2017,08,10,06,15,14.30
2017,08,10,06,16,14.30
2017,08,10,06,17,14.30
2017,08,10,06,18,14.30
2017,08,10,06,19,14.30
2017,08,10,06,20,14.30
2017,08,10,06,21,14.20
2017,08,10,06,22,14.20
2017,08,10,06,23,14.20
2017,08,10,06,24,14.20
2017,08,10,06,25,14.20
2017,08,10,06,26,14.20
2017,08,10,06,27,14.20
2017,08,10,06,28,14.20
2017,08,10,06,29,14.20
2017,08,10,06,30,14.20
2017,08,10,06,31,14.20
2017,08,10,06,32,14.30
2017,08,10,06,33,14.30
2017,08,10,06,34,14.30
2017,08,10,06,35,14.30
2017,08,10,06,36,14.30
2017,08,10,06,37,14.30
2017,08,10,06,38,14.30
2017,08,10,06,39,14.30
2017,08,10,06,40,14.30
2017,08,10,06,41,14.30
2017,08,10,06,42,14.20
2017,08,10,06,43,14.20
2017,08,10,06,44,14.20
2017,08,10,06,45,14.20
2017,08,10,06,46,14.20
2017,08,10,06,47,14.30
2017,08,10,06,48,14.30
2017,08,10,06,49,14.30
2017,08,10,06,50,14.30
2017,08,10,06,51,14.30
2017,08,10,06,52,14.30
2017,08,10,06,53,14.30
2017,08,10,06,54,14.30
2017,08,10,06,55,14.30
2017,08,10,06,56,14.30
2017,08,10,06,57,14.30
2017,08,10,06,58,14.30
2017,08,10,06,59,14.30
2017,08,10,07,00,14.40
2017,08,10,07,01,14.40
2017,08,10,07,02,14.40
2017,08,10,07,03,14.40
2017,08,10,07,04,14.40
2017,08,10,07,05,14.40
2017,08,10,07,06,14.40
2017,08,10,07,07,14.40
2017,08,10,07,08,14.40
2017,08,10,07,09,14.50
2017,08,10,07,10,14.50
2017,08,10,07,11,14.50
2017,08,10,07,12,14.60
2017,08,10,07,13,14.60
2017,08,10,07,14,14.60
2017,08,10,07,15,14.70
2017,08,10,07,16,14.70
2017,08,10,07,17,14.70
2017,08,10,07,18,14.80
2017,08,10,07,19,14.80
2017,08,10,07,20,14.80
2017,08,10,07,21,14.90
2017,08,10,07,22,14.90
2017,08,10,07,23,15.00
2017,08,10,07,24,15.00
2017,08,10,07,25,15.10
2017,08,10,07,26,15.10
2017,08,10,07,27,15.20
2017,08,10,07,28,15.20
2017,08,10,07,29,15.30
2017,08,10,07,30,15.40
2017,08,10,07,31,15.40
2017,08,10,07,32,15.50
2017,08,10,07,33,15.50
2017,08,10,07,34,15.60
2017,08,10,07,35,15.60
2017,08,10,07,36,15.70
2017,08,10,07,37,15.80
2017,08,10,07,38,15.80
2017,08,10,07,39,15.90
2017,08,10,07,40,16.00
2017,08,10,07,41,16.00
2017,08,10,07,42,16.10
2017,08,10,07,43,16.20
2017,08,10,07,44,16.20
2017,08,10,07,45,16.30
2017,08,10,07,46,16.30
2017,08,10,07,47,16.40
2017,08,10,07,48,16.50
2017,08,10,07,49,16.60
2017,08,10,07,50,16.60
2017,08,10,07,51,16.70
2017,08,10,07,52,16.80
2017,08,10,07,53,16.80
2017,08,10,07,54,16.90
2017,08,10,07,55,16.90
2017,08,10,07,56,17.00
2017,08,10,07,57,17.00
2017,08,10,07,58,17.10
2017,08,10,07,59,17.10
2017,08,10,08,00,17.20
2017,08,10,08,01,17.20
2017,08,10,08,02,17.30
2017,08,10,08,03,17.30
2017,08,10,08,04,17.30
2017,08,10,08,05,17.30
2017,08,10,08,06,17.40
2017,08,10,08,07,17.40
2017,08,10,08,08,17.40
2017,08,10,08,09,17.50
2017,08,10,08,10,17.50
2017,08,10,08,11,17.60
2017,08,10,08,12,17.60
2017,08,10,08,13,17.70
2017,08,10,08,14,17.70
2017,08,10,08,15,17.80
2017,08,10,08,16,17.80
2017,08,10,08,17,17.90
2017,08,10,08,18,17.90
2017,08,10,08,19,18.00
2017,08,10,08,20,18.00
2017,08,10,08,21,18.10
2017,08,10,08,22,18.10
2017,08,10,08,23,18.20
2017,08,10,08,24,18.20
2017,08,10,08,25,18.30
2017,08,10,08,26,18.30
2017,08,10,08,27,18.40
2017,08,10,08,28,18.50
2017,08,10,08,29,18.50
2017,08,10,08,30,18.50
2017,08,10,08,31,18.60
2017,08,10,08,32,18.60
2017,08,10,08,33,18.70
2017,08,10,08,34,18.70
2017,08,10,08,35,18.70
2017,08,10,08,36,18.80
2017,08,10,08,37,18.80
2017,08,10,08,38,18.80
2017,08,10,08,39,18.90
2017,08,10,08,40,18.90
2017,08,10,08,41,18.90
2017,08,10,08,42,19.00
2017,08,10,08,43,19.00
2017,08,10,08,44,19.10
2017,08,10,08,45,19.10
2017,08,10,08,46,19.10
2017,08,10,08,47,19.10
2017,08,10,08,48,19.20
2017,08,10,08,49,19.20
2017,08,10,08,50,19.20
2017,08,10,08,51,19.20
2017,08,10,08,52,19.20
2017,08,10,08,53,19.30
2017,08,10,08,54,19.30
2017,08,10,08,55,19.30
2017,08,10,08,56,19.30
2017,08,10,08,57,19.40
2017,08,10,08,58,19.40
2017,08,10,08,59,19.40
2017,08,10,09,00,19.40
2017,08,10,09,01,19.40
2017,08,10,09,02,19.40
2017,08,10,09,03,19.40
2017,08,10,09,04,19.40
2017,08,10,09,05,19.50
2017,08,10,09,06,19.50
2017,08,10,09,07,19.60
2017,08,10,09,08,19.60
2017,08,10,09,09,19.70
2017,08,10,09,10,19.70
2017,08,10,09,11,19.80
2017,08,10,09,12,19.90
2017,08,10,09,13,19.90
2017,08,10,09,14,20.00
2017,08,10,09,15,20.10
2017,08,10,09,16,20.20
2017,08,10,09,17,20.30
2017,08,10,09,18,20.40
2017,08,10,09,19,20.40
2017,08,10,09,20,20.50
2017,08,10,09,21,20.60
2017,08,10,09,22,20.70
2017,08,10,09,23,20.80
2017,08,10,09,24,20.90
2017,08,10,09,25,20.90
2017,08,10,09,26,21.00
2017,08,10,09,27,21.00
2017,08,10,09,28,21.10
2017,08,10,09,29,21.20
2017,08,10,09,30,21.20
2017,08,10,09,31,21.30
2017,08,10,09,32,21.30
2017,08,10,09,33,21.40
2017,08,10,09,34,21.40
2017,08,10,09,35,21.40
2017,08,10,09,36,21.40
2017,08,10,09,37,21.50
2017,08,10,09,38,21.50
2017,08,10,09,39,21.50
2017,08,10,09,40,21.50
2017,08,10,09,41,21.50
2017,08,10,09,42,21.50
2017,08,10,09,43,21.50
2017,08,10,09,44,21.50
2017,08,10,09,45,21.50
2017,08,10,09,46,21.60
2017,08,10,09,47,21.60
2017,08,10,09,48,21.60
2017,08,10,09,49,21.70
2017,08,10,09,50,21.70
2017,08,10,09,51,21.80
2017,08,10,09,52,21.80
2017,08,10,09,53,21.80
2017,08,10,09,54,21.90
2017,08,10,09,55,21.90
2017,08,10,09,56,22.00
2017,08,10,09,57,22.00
2017,08,10,09,58,22.10
2017,08,10,09,59,22.10
2017,08,10,10,00,22.10
2017,08,10,10,01,22.20
2017,08,10,10,02,22.20
2017,08,10,10,03,22.20
2017,08,10,10,04,22.20
2017,08,10,10,05,22.20
2017,08,10,10,06,22.20
2017,08,10,10,07,22.20
2017,08,10,10,08,22.20
2017,08,10,10,09,22.20
2017,08,10,10,10,22.20
2017,08,10,10,11,22.10
2017,08,10,10,12,22.00
2017,08,10,10,13,22.00
2017,08,10,10,14,21.90
2017,08,10,10,15,21.80
2017,08,10,10,16,21.80
2017,08,10,10,17,21.80
2017,08,10,10,18,21.80
2017,08,10,10,19,21.80
2017,08,10,10,20,21.90
2017,08,10,10,21,21.90
2017,08,10,10,22,22.00
2017,08,10,10,23,22.10
2017,08,10,10,24,22.10
2017,08,10,10,25,22.20
2017,08,10,10,26,22.20
2017,08,10,10,27,22.30
2017,08,10,10,28,22.30
2017,08,10,10,29,22.40
2017,08,10,10,30,22.40
2017,08,10,10,31,22.50
2017,08,10,10,32,22.60
2017,08,10,10,33,22.70
2017,08,10,10,34,22.70
2017,08,10,10,35,22.80
2017,08,10,10,36,22.80
2017,08,10,10,37,22.80
2017,08,10,10,38,22.80
2017,08,10,10,39,22.80
2017,08,10,10,40,22.80
2017,08,10,10,41,22.80
2017,08,10,10,42,22.80
2017,08,10,10,43,22.80
2017,08,10,10,44,22.80
2017,08,10,10,45,22.90
2017,08,10,10,46,22.90
2017,08,10,10,47,22.90
2017,08,10,10,48,22.90
2017,08,10,10,49,22.90
2017,08,10,10,50,22.90
2017,08,10,10,51,22.90
2017,08,10,10,52,22.90
2017,08,10,10,53,22.90
2017,08,10,10,54,22.80
2017,08,10,10,55,22.80
2017,08,10,10,56,22.80
2017,08,10,10,57,22.90
2017,08,10,10,58,22.90
2017,08,10,10,59,22.90
2017,08,10,11,00,22.90
2017,08,10,11,01,23.00
2017,08,10,11,02,23.00
2017,08,10,11,03,23.10
2017,08,10,11,04,23.10
2017,08,10,11,05,23.10
2017,08,10,11,06,23.10
2017,08,10,11,07,23.10
2017,08,10,11,08,23.10
2017,08,10,11,09,23.10
2017,08,10,11,10,23.20
2017,08,10,11,11,23.20
2017,08,10,11,12,23.20
2017,08,10,11,13,23.20
2017,08,10,11,14,23.20
2017,08,10,11,15,23.20
2017,08,10,11,16,23.20
2017,08,10,11,17,23.20
2017,08,10,11,18,23.10
2017,08,10,11,19,23.10
2017,08,10,11,20,23.00
2017,08,10,11,21,23.00
2017,08,10,11,22,22.90
2017,08,10,11,23,22.90
2017,08,10,11,24,22.90
2017,08,10,11,25,22.90
2017,08,10,11,26,22.90
2017,08,10,11,27,22.90
2017,08,10,11,28,22.90
2017,08,10,11,29,22.80
2017,08,10,11,30,22.80
2017,08,10,11,31,22.80
2017,08,10,11,32,22.80
2017,08,10,11,33,22.80
2017,08,10,11,34,22.80
2017,08,10,11,35,22.80
2017,08,10,11,36,22.90
2017,08,10,11,37,23.00
2017,08,10,11,38,23.10
2017,08,10,11,39,23.10
2017,08,10,11,40,23.20
2017,08,10,11,41,23.30
2017,08,10,11,42,23.40
2017,08,10,11,43,23.40
2017,08,10,11,44,23.40
2017,08,10,11,45,23.40
2017,08,10,11,46,23.40
2017,08,10,11,47,23.50
2017,08,10,11,48,23.50
2017,08,10,11,49,23.50
2017,08,10,11,50,23.60
2017,08,10,11,51,23.70
2017,08,10,11,52,23.80
2017,08,10,11,53,23.80
2017,08,10,11,54,23.80
2017,08,10,11,55,23.80
2017,08,10,11,56,23.80
2017,08,10,11,57,23.90
2017,08,10,11,58,23.90
2017,08,10,11,59,23.90
2017,08,10,12,00,23.90
2017,08,10,12,01,23.90
2017,08,10,12,02,24.00
2017,08,10,12,03,23.90
2017,08,10,12,04,23.90
2017,08,10,12,05,23.90
2017,08,10,12,06,23.80
2017,08,10,12,07,23.80
2017,08,10,12,08,23.80
2017,08,10,12,09,23.90
2017,08,10,12,10,24.00
2017,08,10,12,11,24.10
2017,08,10,12,12,24.10
2017,08,10,12,13,24.20
2017,08,10,12,14,24.20
2017,08,10,12,15,24.10
2017,08,10,12,16,24.00
2017,08,10,12,17,23.90
2017,08,10,12,18,23.80
2017,08,10,12,19,23.70
2017,08,10,12,20,23.50
2017,08,10,12,21,23.40
2017,08,10,12,22,23.30
2017,08,10,12,23,23.20
2017,08,10,12,24,23.10
2017,08,10,12,25,23.00
2017,08,10,12,26,23.00
2017,08,10,12,27,22.90
2017,08,10,12,28,22.90
2017,08,10,12,29,22.90
2017,08,10,12,30,23.00
2017,08,10,12,31,23.10
2017,08,10,12,32,23.20
2017,08,10,12,33,23.40
2017,08,10,12,34,23.60
2017,08,10,12,35,23.70
2017,08,10,12,36,23.80
2017,08,10,12,37,23.90
2017,08,10,12,38,24.00
2017,08,10,12,39,24.10
2017,08,10,12,40,24.20
2017,08,10,12,41,24.20
2017,08,10,12,42,24.30
2017,08,10,12,43,24.40
2017,08,10,12,44,24.50
2017,08,10,12,45,24.50
2017,08,10,12,46,24.60
2017,08,10,12,47,24.70
2017,08,10,12,48,24.80
2017,08,10,12,49,24.80
2017,08,10,12,50,24.90
2017,08,10,12,51,24.90
2017,08,10,12,52,25.00
2017,08,10,12,53,25.00
2017,08,10,12,54,25.00
2017,08,10,12,55,24.90
2017,08,10,12,56,24.80
2017,08,10,12,57,24.70
2017,08,10,12,58,24.60
2017,08,10,12,59,24.60
2017,08,10,13,00,24.50
2017,08,10,13,01,24.40
2017,08,10,13,02,24.40
2017,08,10,13,03,24.30
2017,08,10,13,04,24.30
2017,08,10,13,05,24.30
2017,08,10,13,06,24.20
2017,08,10,13,07,24.20
2017,08,10,13,08,24.10
2017,08,10,13,09,24.10
2017,08,10,13,10,24.10
2017,08,10,13,11,24.10
2017,08,10,13,12,24.10
2017,08,10,13,13,24.10
2017,08,10,13,14,24.20
2017,08,10,13,15,24.20
2017,08,10,13,16,24.30
2017,08,10,13,17,24.40
2017,08,10,13,18,24.50
2017,08,10,13,19,24.50
2017,08,10,13,20,24.60
2017,08,10,13,21,24.60
2017,08,10,13,22,24.70
2017,08,10,13,23,24.80
2017,08,10,13,24,24.80
2017,08,10,13,25,24.80
2017,08,10,13,26,24.80
2017,08,10,13,27,24.90
2017,08,10,13,28,24.90
2017,08,10,13,29,24.90
2017,08,10,13,30,24.90
2017,08,10,13,31,24.90
2017,08,10,13,32,24.90
2017,08,10,13,33,25.00
2017,08,10,13,34,25.00
2017,08,10,13,35,25.10
2017,08,10,13,36,25.10
2017,08,10,13,37,25.10
2017,08,10,13,38,25.10
2017,08,10,13,39,25.10
2017,08,10,13,40,25.00
2017,08,10,13,41,24.90
2017,08,10,13,42,24.90
2017,08,10,13,43,24.90
2017,08,10,13,44,24.90
2017,08,10,13,45,24.90
2017,08,10,13,46,24.90
2017,08,10,13,47,24.80
2017,08,10,13,48,24.90
2017,08,10,13,49,24.90
2017,08,10,13,50,24.90
2017,08,10,13,51,24.90
2017,08,10,13,52,25.00
2017,08,10,13,53,24.90
2017,08,10,13,54,24.90
2017,08,10,13,55,24.90
2017,08,10,13,56,24.90
2017,08,10,13,57,24.80
2017,08,10,13,58,24.80
2017,08,10,13,59,24.90
2017,08,10,14,00,25.00
2017,08,10,14,01,25.00
2017,08,10,14,02,25.10
2017,08,10,14,03,25.10
2017,08,10,14,04,25.20
2017,08,10,14,05,25.20
2017,08,10,14,06,25.20
2017,08,10,14,07,25.30
2017,08,10,14,08,25.30
2017,08,10,14,09,25.30
2017,08,10,14,10,25.30
2017,08,10,14,11,25.30
2017,08,10,14,12,25.30
2017,08,10,14,13,25.30
2017,08,10,14,14,25.40
2017,08,10,14,15,25.40
2017,08,10,14,16,25.50
2017,08,10,14,17,25.60
2017,08,10,14,18,25.80
2017,08,10,14,19,25.90
2017,08,10,14,20,26.10
2017,08,10,14,21,26.20
2017,08,10,14,22,26.30
2017,08,10,14,23,26.50
2017,08,10,14,24,26.50
2017,08,10,14,25,26.60
2017,08,10,14,26,26.60
2017,08,10,14,27,26.60
2017,08,10,14,28,26.50
2017,08,10,14,29,26.40
2017,08,10,14,30,26.30
2017,08,10,14,31,26.20
2017,08,10,14,32,26.10
2017,08,10,14,33,26.00
2017,08,10,14,34,25.90
2017,08,10,14,35,25.90
2017,08,10,14,36,25.80
2017,08,10,14,37,25.80
2017,08,10,14,38,25.80
2017,08,10,14,39,25.70
2017,08,10,14,40,25.70
2017,08,10,14,41,25.70
2017,08,10,14,42,25.60
2017,08,10,14,43,25.50
2017,08,10,14,44,25.50
2017,08,10,14,45,25.40
2017,08,10,14,46,25.40
2017,08,10,14,47,25.40
2017,08,10,14,48,25.40
2017,08,10,14,49,25.40
2017,08,10,14,50,25.30
2017,08,10,14,51,25.40
2017,08,10,14,52,25.40
2017,08,10,14,53,25.40
2017,08,10,14,54,25.40
2017,08,10,14,55,25.40
2017,08,10,14,56,25.30
2017,08,10,14,57,25.30
2017,08,10,14,58,25.20
2017,08,10,14,59,25.20
2017,08,10,15,00,25.20
2017,08,10,15,01,25.20
2017,08,10,15,02,25.20
2017,08,10,15,03,25.20
2017,08,10,15,04,25.20
2017,08,10,15,05,25.10
2017,08,10,15,06,25.10
2017,08,10,15,07,25.00
2017,08,10,15,08,25.00
2017,08,10,15,09,25.10
2017,08,10,15,10,25.10
2017,08,10,15,11,25.10
2017,08,10,15,12,25.10
2017,08,10,15,13,25.10
2017,08,10,15,14,25.10
2017,08,10,15,15,25.10
2017,08,10,15,16,25.10
2017,08,10,15,17,25.20
2017,08,10,15,18,25.20
2017,08,10,15,19,25.20
2017,08,10,15,20,25.20
2017,08,10,15,21,25.30
2017,08,10,15,22,25.30
2017,08,10,15,23,25.40
2017,08,10,15,24,25.50
2017,08,10,15,25,25.50
2017,08,10,15,26,25.60
2017,08,10,15,27,25.70
2017,08,10,15,28,25.80
2017,08,10,15,29,25.80
2017,08,10,15,30,25.90
2017,08,10,15,31,25.90
2017,08,10,15,32,25.90
2017,08,10,15,33,26.00
2017,08,10,15,34,26.00
2017,08,10,15,35,26.10
2017,08,10,15,36,26.10
2017,08,10,15,37,26.20
2017,08,10,15,38,26.20
2017,08,10,15,39,26.30
2017,08,10,15,40,26.40
2017,08,10,15,41,26.50
2017,08,10,15,42,26.50
2017,08,10,15,43,26.60
2017,08,10,15,44,26.70
2017,08,10,15,45,26.70
2017,08,10,15,46,26.80
2017,08,10,15,47,26.80
2017,08,10,15,48,26.90
2017,08,10,15,49,27.00
2017,08,10,15,50,27.00
2017,08,10,15,51,27.10
2017,08,10,15,52,27.20
2017,08,10,15,53,27.30
2017,08,10,15,54,27.30
2017,08,10,15,55,27.30
2017,08,10,15,56,27.30
2017,08,10,15,57,27.30
2017,08,10,15,58,27.30
2017,08,10,15,59,27.30
2017,08,10,16,00,27.30
2017,08,10,16,01,27.30
2017,08,10,16,02,27.40
2017,08,10,16,03,27.40
2017,08,10,16,04,27.40
2017,08,10,16,05,27.40
2017,08,10,16,06,27.40
2017,08,10,16,07,27.40
2017,08,10,16,08,27.30
2017,08,10,16,09,27.30
2017,08,10,16,10,27.30
2017,08,10,16,11,27.30
2017,08,10,16,12,27.30
2017,08,10,16,13,27.30
2017,08,10,16,14,27.30
2017,08,10,16,15,27.40
2017,08,10,16,16,27.40
2017,08,10,16,17,27.40
2017,08,10,16,18,27.40
2017,08,10,16,19,27.40
2017,08,10,16,20,27.40
2017,08,10,16,21,27.40
2017,08,10,16,22,27.30
2017,08,10,16,23,27.30
2017,08,10,16,24,27.30
2017,08,10,16,25,27.30
2017,08,10,16,26,27.30
2017,08,10,16,27,27.30
2017,08,10,16,28,27.30
2017,08,10,16,29,27.30
2017,08,10,16,30,27.30
2017,08,10,16,31,27.30
2017,08,10,16,32,27.30
2017,08,10,16,33,27.30
2017,08,10,16,34,27.30
2017,08,10,16,35,27.30
2017,08,10,16,36,27.30
2017,08,10,16,37,27.30
2017,08,10,16,38,27.30
2017,08,10,16,39,27.30
2017,08,10,16,40,27.30
2017,08,10,16,41,27.20
2017,08,10,16,42,27.20
2017,08,10,16,43,27.20
2017,08,10,16,44,27.20
2017,08,10,16,45,27.20
2017,08,10,16,46,27.20
2017,08,10,16,47,27.20
2017,08,10,16,48,27.20
2017,08,10,16,49,27.20
2017,08,10,16,50,27.20
2017,08,10,16,51,27.20
2017,08,10,16,52,27.20
2017,08,10,16,53,27.20
2017,08,10,16,54,27.30
2017,08,10,16,55,27.30
2017,08,10,16,56,27.20
2017,08,10,16,57,27.20
2017,08,10,16,58,27.20
2017,08,10,16,59,27.20
2017,08,10,17,00,27.20
2017,08,10,17,01,27.20
2017,08,10,17,02,27.30
2017,08,10,17,03,27.30
2017,08,10,17,04,27.30
2017,08,10,17,05,27.30
2017,08,10,17,06,27.30
2017,08,10,17,07,27.30
2017,08,10,17,08,27.30
2017,08,10,17,09,27.30
2017,08,10,17,10,27.30
2017,08,10,17,11,27.30
2017,08,10,17,12,27.30
2017,08,10,17,13,27.30
2017,08,10,17,14,27.30
2017,08,10,17,15,27.30
2017,08,10,17,16,27.30
2017,08,10,17,17,27.40
2017,08,10,17,18,27.40
2017,08,10,17,19,27.50
2017,08,10,17,20,27.50
2017,08,10,17,21,27.60
2017,08,10,17,22,27.60